TimeEDT,TemperatureF,Dew PointF,Humidity,Sea Level PressureIn,VisibilityMPH,Wind Direction,Wind SpeedMPH,Gust SpeedMPH,PrecipitationIn,Events,Conditions,WindDirDegrees,DateUTC
12:15 AM,53.6,50.0,88,29.91,10.0,Calm,Calm,-,N/A,,Clear,0,2013-09-22 04:15:00
12:35 AM,53.6,50.0,88,29.91,10.0,Calm,Calm,-,N/A,,Clear,0,2013-09-22 04:35:00
12:55 AM,53.6,50.0,88,29.92,10.0,Calm,Calm,-,N/A,,Clear,0,2013-09-22 04:55:00
1:15 AM,53.6,48.2,82,29.92,10.0,Calm,Calm,-,N/A,,Clear,0,2013-09-22 05:15:00
1:35 AM,51.8,50.0,94,29.92,10.0,Calm,Calm,-,N/A,,Clear,0,2013-09-22 05:35:00
1:55 AM,53.6,50.0,88,29.92,10.0,Calm,Calm,-,N/A,,Clear,0,2013-09-22 05:55:00
2:15 AM,51.8,46.4,82,29.92,10.0,North,4.6,-,N/A,,Clear,360,2013-09-22 06:15:00
2:35 AM,51.8,48.2,88,29.93,10.0,NNE,3.5,-,N/A,,Clear,20,2013-09-22 06:35:00
2:55 AM,51.8,48.2,88,29.93,10.0,North,5.8,-,N/A,,Clear,10,2013-09-22 06:55:00
3:15 AM,51.8,48.2,88,29.93,10.0,North,4.6,-,N/A,,Clear,360,2013-09-22 07:15:00
3:35 AM,50.0,48.2,94,29.93,10.0,NNE,5.8,-,N/A,,Clear,20,2013-09-22 07:35:00
3:55 AM,51.8,48.2,88,29.93,10.0,NNE,4.6,-,N/A,,Clear,20,2013-09-22 07:55:00
4:15 AM,51.8,48.2,88,29.93,10.0,NNE,3.5,-,N/A,,Clear,30,2013-09-22 08:15:00
4:35 AM,51.8,48.2,88,29.94,10.0,NE,3.5,-,N/A,,Clear,40,2013-09-22 08:35:00
4:55 AM,48.2,46.4,93,29.93,10.0,NNE,3.5,-,N/A,,Clear,20,2013-09-22 08:55:00
5:15 AM,48.2,46.4,93,29.94,10.0,Calm,Calm,-,N/A,,Clear,0,2013-09-22 09:15:00
5:35 AM,50.0,46.4,87,29.94,10.0,Calm,Calm,-,N/A,,Clear,0,2013-09-22 09:35:00
5:55 AM,48.2,46.4,93,29.94,5.0,Calm,Calm,-,N/A,,Clear,0,2013-09-22 09:55:00
6:15 AM,48.2,46.4,93,29.95,1.8,Calm,Calm,-,N/A,,Clear,0,2013-09-22 10:15:00
6:35 AM,48.2,44.6,87,29.96,8.0,NNE,3.5,-,N/A,,Clear,20,2013-09-22 10:35:00
6:55 AM,46.4,44.6,93,29.96,10.0,Calm,Calm,-,N/A,,Clear,0,2013-09-22 10:55:00
7:15 AM,48.2,46.4,93,29.97,10.0,Calm,Calm,-,N/A,,Clear,0,2013-09-22 11:15:00
7:35 AM,48.2,46.4,93,29.97,4.0,Calm,Calm,-,N/A,,Clear,0,2013-09-22 11:35:00
7:55 AM,48.2,46.4,93,29.98,1.5,Calm,Calm,-,N/A,,Clear,0,2013-09-22 11:55:00
8:15 AM,48.2,46.4,93,29.98,9.0,Calm,Calm,-,N/A,,Clear,0,2013-09-22 12:15:00
8:35 AM,50.0,48.2,94,29.99,10.0,NNE,3.5,-,N/A,,Clear,30,2013-09-22 12:35:00
8:55 AM,51.8,48.2,88,30.00,10.0,NNE,3.5,-,N/A,,Clear,30,2013-09-22 12:55:00
9:15 AM,53.6,48.2,82,30.00,10.0,NNE,4.6,-,N/A,,Clear,30,2013-09-22 13:15:00
9:35 AM,55.4,51.8,88,30.00,10.0,NE,4.6,-,N/A,,Clear,40,2013-09-22 13:35:00
9:55 AM,57.2,51.8,82,30.01,10.0,NE,5.8,-,N/A,,Clear,50,2013-09-22 13:55:00
10:15 AM,59.0,51.8,77,30.02,10.0,NNE,4.6,-,N/A,,Clear,30,2013-09-22 14:15:00
10:35 AM,60.8,51.8,72,30.01,10.0,NE,9.2,-,N/A,,Clear,40,2013-09-22 14:35:00
10:55 AM,62.6,50.0,63,30.01,10.0,ENE,5.8,-,N/A,,Clear,60,2013-09-22 14:55:00
11:15 AM,62.6,50.0,63,30.02,10.0,ENE,8.1,-,N/A,,Clear,60,2013-09-22 15:15:00
11:35 AM,64.4,48.2,56,30.02,10.0,NE,8.1,-,N/A,,Clear,40,2013-09-22 15:35:00
11:55 AM,64.4,48.2,56,30.02,10.0,ENE,8.1,-,N/A,,Clear,60,2013-09-22 15:55:00
12:15 PM,64.4,48.2,56,30.02,10.0,NE,8.1,-,N/A,,Unknown,40,2013-09-22 16:15:00
12:35 PM,66.2,48.2,52,30.01,10.0,East,5.8,-,N/A,,Unknown,80,2013-09-22 16:35:00
12:55 PM,66.2,48.2,52,30.01,10.0,NNE,9.2,-,N/A,,Clear,30,2013-09-22 16:55:00
1:15 PM,66.2,48.2,52,30.01,10.0,ENE,4.6,-,N/A,,Clear,70,2013-09-22 17:15:00
1:35 PM,66.2,48.2,52,30.00,10.0,ENE,4.6,-,N/A,,Clear,60,2013-09-22 17:35:00
1:55 PM,68.0,48.2,49,30.00,10.0,Calm,Calm,-,N/A,,Clear,0,2013-09-22 17:55:00
2:15 PM,68.0,48.2,49,29.99,10.0,NE,3.5,-,N/A,,Clear,50,2013-09-22 18:15:00
2:35 PM,69.8,50.0,49,29.98,10.0,NE,4.6,-,N/A,,Clear,40,2013-09-22 18:35:00
2:55 PM,69.8,48.2,46,29.97,10.0,NE,4.6,-,N/A,,Clear,40,2013-09-22 18:55:00
3:15 PM,69.8,50.0,49,29.97,10.0,ENE,6.9,-,N/A,,Clear,60,2013-09-22 19:15:00
3:35 PM,69.8,48.2,46,29.96,10.0,East,5.8,-,N/A,,Clear,90,2013-09-22 19:35:00
3:55 PM,69.8,48.2,46,29.96,10.0,SE,4.6,-,N/A,,Clear,130,2013-09-22 19:55:00
4:15 PM,69.8,48.2,46,29.96,10.0,Calm,Calm,-,N/A,,Clear,0,2013-09-22 20:15:00
4:35 PM,71.6,48.2,43,29.95,10.0,NNE,5.8,-,N/A,,Clear,30,2013-09-22 20:35:00
4:55 PM,71.6,48.2,43,29.95,10.0,ENE,5.8,-,N/A,,Clear,60,2013-09-22 20:55:00
5:15 PM,71.6,48.2,43,29.95,10.0,North,5.8,-,N/A,,Clear,10,2013-09-22 21:15:00
5:35 PM,71.6,50.0,46,29.95,10.0,NE,6.9,-,N/A,,Clear,40,2013-09-22 21:35:00
5:55 PM,69.8,48.2,46,29.95,10.0,ENE,6.9,-,N/A,,Clear,60,2013-09-22 21:55:00
6:15 PM,69.8,50.0,49,29.95,10.0,NNE,8.1,-,N/A,,Clear,30,2013-09-22 22:15:00
6:35 PM,69.8,48.2,46,29.95,10.0,NNE,5.8,-,N/A,,Clear,20,2013-09-22 22:35:00
6:55 PM,69.8,50.0,49,29.95,10.0,NNE,6.9,-,N/A,,Clear,20,2013-09-22 22:55:00
7:15 PM,66.2,50.0,56,29.95,10.0,North,6.9,-,N/A,,Clear,10,2013-09-22 23:15:00
7:35 PM,64.4,50.0,59,29.96,10.0,NNE,5.8,-,N/A,,Clear,20,2013-09-22 23:35:00
7:55 PM,62.6,50.0,63,29.96,10.0,NNE,5.8,-,N/A,,Clear,20,2013-09-22 23:55:00
8:15 PM,62.6,50.0,63,29.96,10.0,NNE,4.6,-,N/A,,Clear,20,2013-09-23 00:15:00
8:35 PM,60.8,51.8,72,29.97,10.0,NE,5.8,-,N/A,,Clear,40,2013-09-23 00:35:00
8:55 PM,59.0,50.0,72,29.97,10.0,NE,5.8,-,N/A,,Clear,40,2013-09-23 00:55:00
9:15 PM,59.0,50.0,72,29.97,10.0,NE,8.1,-,N/A,,Clear,50,2013-09-23 01:15:00
9:35 PM,59.0,50.0,72,29.98,10.0,NE,6.9,-,N/A,,Clear,50,2013-09-23 01:35:00
9:55 PM,57.2,50.0,77,29.98,10.0,NE,6.9,-,N/A,,Clear,40,2013-09-23 01:55:00
10:15 PM,57.2,50.0,77,29.99,10.0,NE,5.8,-,N/A,,Clear,40,2013-09-23 02:15:00
10:35 PM,57.2,50.0,77,29.99,10.0,NE,5.8,-,N/A,,Clear,40,2013-09-23 02:35:00
10:55 PM,55.4,48.2,77,30.00,10.0,NE,5.8,-,N/A,,Clear,50,2013-09-23 02:55:00
11:15 PM,55.4,48.2,77,30.00,10.0,NE,4.6,-,N/A,,Clear,50,2013-09-23 03:15:00
11:35 PM,55.4,48.2,77,30.01,10.0,ENE,3.5,-,N/A,,Clear,60,2013-09-23 03:35:00
11:55 PM,53.6,48.2,82,30.00,10.0,ENE,3.5,-,N/A,,Clear,70,2013-09-23 03:55:00